Find OneWeb SL0062

NORAD ID: 45163 Int'l Des: 2020-008 Owner: ONEWEB Country: UK Constellation: oneweb operational
LEOCIRCULARPOLARONEWEB_TYPE

实时位置

正在加载3D地球...

关于 OneWeb SL0062

正在加载描述...

即将过境

Passes for default location (London). Set your location on the main map for personalized predictions.

高度历史

Loading altitude history...

两行轨道根数

1 45163U 20008AJ 26106.84152215 -.00000148 00000-0 -46116-3 0 9998
2 45163 87.8843 48.4713 0001792 73.7313 286.4011 13.10366852300155
Epoch: Apr 16, 2026 • Age: 13 hours

当前状态

高度 1223.3 km
速度 7.24 km/s
星下点 10.11°N, 67.09°E
发射日期 Feb 6, 2020
运行时间 6.1 years
类型 internet

技术详情

分类 Payload
质量 148.00 kg
干质量 140.00 kg
总质量 148.00 kg
长度 1.30 m
直径 1.00 m
跨度 5.00 m
形状 Trapezoid+2 pan
制造商 ONEWUS
平台类型 ARROW
阶段状态 In Orbit
所有者/国家 ONEWEB/UK

Most Searched